DateTimeUTC,F1_A11,F1_S11,BsB_S11,BsG_S11,BsR_S11,BbsB_S11,BbsG_S11,BbsR_S11,BaB_A11,BaG_A11,BaR_A11,Tu_S11,T_S11,Uu_S11,U_S11,P_S11,T1_A11
2021-08-08T01:00:00Z,00000200,20000000,,,,,,,-000.02,0000.04,0000.08,18.6,25.3,06.6,04.4,0665.7,31.1
2021-08-08T01:01:00Z,00000200,20000000,,,,,,,0000.09,-000.19,0000.01,18.6,25.3,06.6,04.4,0665.7,31.0
2021-08-08T01:02:00Z,00000200,20000000,,,,,,,-000.25,-000.39,0000.17,18.6,25.3,06.6,04.4,0665.7,31.0
2021-08-08T01:03:00Z,00000200,60000000,,,,,,,0000.33,0000.34,-000.17,18.6,25.3,06.6,04.4,0665.7,31.1
2021-08-08T01:04:00Z,00000200,40000000,0001.02,0001.30,0000.40,-000.35,-000.06,0000.25,0000.49,-000.09,0000.40,18.7,25.1,06.5,04.4,0666.6,31.0
2021-08-08T01:05:00Z,00000200,00000000,0001.96,0001.29,0000.79,0000.47,-000.04,0000.37,-000.36,0000.11,0000.19,18.7,25.1,06.6,04.4,0666.8,31.0
2021-08-08T01:06:00Z,00000200,00000000,0000.98,0001.17,0000.47,-000.18,0000.24,-000.22,0000.37,0000.58,-000.16,18.7,25.1,06.5,04.4,0666.6,31.0
2021-08-08T01:07:00Z,00000200,00000000,0001.04,0000.98,0000.80,0000.68,-000.06,0000.12,-000.38,-000.24,-000.04,18.7,25.1,06.5,04.4,0666.7,31.0
2021-08-08T01:08:00Z,00000200,00000000,0001.49,0000.96,0000.59,0000.44,0000.02,0000.14,0000.45,0000.24,0000.39,18.7,25.1,06.6,04.5,0666.7,31.0
2021-08-08T01:09:00Z,00000200,00000000,0001.05,0001.01,0000.48,-000.14,0000.18,0000.06,0000.39,0000.21,0000.26,18.7,25.1,06.5,04.4,0666.7,31.0
2021-08-08T01:10:00Z,00000200,00000000,0000.89,0001.17,0000.63,-000.01,0000.35,0000.24,-000.22,0000.05,-000.17,18.7,25.0,06.5,04.4,0666.8,31.0
2021-08-08T01:11:00Z,00000200,00000000,0001.89,0001.21,0000.39,0000.75,0000.13,0000.10,0000.27,-000.13,0000.23,18.6,25.0,06.6,04.5,0666.9,31.0
2021-08-08T01:12:00Z,00000200,00000000,0001.07,0001.24,0000.31,0000.81,0000.25,0000.22,0000.12,0000.18,0000.42,18.6,25.0,06.5,04.4,0666.9,31.0
2021-08-08T01:13:00Z,00000200,00000000,0001.05,0000.98,0000.43,0001.21,-000.01,-000.04,-000.19,0000.25,-000.10,18.6,25.0,06.5,04.4,0666.9,31.0
2021-08-08T01:14:00Z,00000200,00000000,0000.57,0001.01,0000.73,-000.02,0000.17,0000.03,-000.11,-000.18,-000.04,18.6,25.0,06.4,04.4,0666.9,31.1
2021-08-08T01:15:00Z,00000200,00000000,0001.39,0000.90,0000.46,0001.06,0000.07,0000.02,-000.10,-000.18,-000.43,18.6,25.0,06.2,04.2,0666.9,31.0
2021-08-08T01:16:00Z,00000200,00000000,-000.09,0001.03,0000.64,0000.27,0000.10,0000.18,0000.19,0000.39,0000.83,18.6,25.0,06.3,04.3,0666.8,31.0
2021-08-08T01:17:00Z,00000200,00000000,0001.59,0001.13,0000.15,0000.41,0000.14,0000.31,0000.29,0000.06,-000.12,18.6,25.0,06.3,04.3,0666.9,31.0
2021-08-08T01:18:00Z,00000200,00000000,0001.65,0001.26,0000.68,0000.52,-000.09,0000.10,0000.28,-000.01,0000.27,18.6,25.0,06.4,04.3,0667.0,31.0
2021-08-08T01:19:00Z,00000200,00000000,0001.18,0000.97,0000.64,0000.31,0000.30,-000.15,0000.04,0000.56,0000.05,18.6,24.9,06.3,04.3,0667.0,31.0
2021-08-08T01:20:00Z,00000200,00000000,0000.26,0000.73,0000.37,-000.08,-000.18,-000.01,0000.20,0000.17,0000.03,18.6,25.0,06.4,04.3,0666.9,31.0
2021-08-08T01:21:00Z,00000200,00000000,0001.19,0001.12,0000.40,0000.85,0000.39,0000.14,-000.75,-000.46,-000.39,18.6,25.0,06.2,04.2,0666.8,31.0
2021-08-08T01:22:00Z,00000200,00000000,0000.80,0000.76,0000.31,0001.30,0000.03,0000.33,0000.34,-000.65,-000.22,18.6,25.0,05.9,04.0,0666.9,31.0
2021-08-08T01:23:00Z,00000200,00000000,0001.31,0001.03,0000.43,0000.91,-000.08,0000.43,0000.17,0000.56,0000.40,18.6,24.9,05.9,04.0,0666.9,31.0
2021-08-08T01:24:00Z,00000200,00000000,0000.94,0001.06,0000.39,0000.77,0000.08,-000.23,-000.04,0000.22,0000.10,18.6,25.0,05.9,04.0,0666.9,31.0
2021-08-08T01:25:00Z,00000200,00000000,0001.38,0001.35,0000.66,0000.50,0000.22,0000.27,0000.07,-000.19,0000.41,18.7,25.0,05.9,04.0,0667.1,31.1
2021-08-08T01:26:00Z,00000200,00000000,0001.39,0001.13,0000.73,0000.13,-000.20,0000.22,-000.08,0000.12,-000.15,18.7,25.1,05.9,04.0,0667.0,31.1
2021-08-08T01:27:00Z,00000200,00000000,0001.67,0001.13,0000.39,0000.32,0000.06,0000.19,0000.50,0000.41,-000.10,18.8,25.1,05.8,04.0,0667.1,31.1
2021-08-08T01:28:00Z,00000200,00000000,0001.34,0001.12,0000.41,0000.95,0000.16,0000.21,-000.03,-000.06,0000.35,18.8,25.1,05.9,04.0,0667.0,31.1
2021-08-08T01:29:00Z,00000200,00000000,0000.88,0000.71,0000.36,-000.12,-000.32,0000.14,-000.16,-000.05,-000.25,18.8,25.1,05.7,03.9,0666.9,31.1
2021-08-08T01:30:00Z,00000200,00000000,0001.22,0000.74,0000.66,0000.35,0000.27,0000.18,0000.26,0000.23,0000.16,18.8,25.1,05.7,03.9,0666.9,31.1
2021-08-08T01:31:00Z,00000200,00000000,0001.08,0000.84,0000.63,0000.80,-000.03,0000.24,0000.15,0000.38,0000.63,18.8,25.1,05.7,03.9,0667.0,31.0
2021-08-08T01:32:00Z,00000200,00000000,0000.93,0001.11,0000.59,0000.53,0000.22,0000.23,0000.30,-000.15,0000.05,18.8,25.0,05.7,03.9,0666.9,31.0
2021-08-08T01:33:00Z,00000200,00000000,0001.50,0000.86,0000.48,0000.30,0000.12,0000.24,0000.10,0000.24,0000.07,18.7,25.0,05.7,03.9,0666.9,31.0
2021-08-08T01:34:00Z,00000200,00000000,0000.34,0000.64,0000.06,0000.27,-000.10,-000.24,0000.22,0000.30,-000.03,18.7,25.0,05.6,03.8,0666.9,31.0
2021-08-08T01:35:00Z,00000200,00000000,0001.11,0000.96,0000.41,0000.76,-000.27,-000.00,0000.05,0000.19,0000.55,18.7,25.0,05.7,03.9,0667.0,31.0
2021-08-08T01:36:00Z,00000200,00000000,0001.61,0000.93,0000.59,-000.34,0000.07,-000.16,0000.50,0000.28,0000.05,18.7,25.0,05.6,03.8,0667.1,31.0
2021-08-08T01:37:00Z,00000200,00000000,0001.03,0001.11,0000.36,0000.66,-000.00,-000.02,-000.11,-000.05,0000.36,18.7,25.0,05.7,03.9,0667.1,31.0
2021-08-08T01:38:00Z,00000200,00000000,0001.70,0001.12,0000.60,0000.93,0000.38,0000.27,0000.34,0000.21,-000.21,18.7,25.0,05.7,03.9,0667.0,31.0
2021-08-08T01:39:00Z,00000200,00000000,0000.93,0000.71,0000.81,0000.58,-000.15,0000.10,0000.00,0000.15,0000.23,18.7,25.0,05.7,03.9,0667.0,31.0
2021-08-08T01:40:00Z,00000200,00000000,0001.05,0001.23,0000.72,0000.12,-000.06,0000.62,0000.37,0000.55,0000.43,18.6,25.0,05.7,03.9,0667.0,31.0
2021-08-08T01:41:00Z,00000200,00000000,0001.19,0001.13,0000.31,-000.37,0000.03,0000.06,0000.42,0000.20,0000.22,18.6,25.0,05.8,03.9,0667.1,31.0
2021-08-08T01:42:00Z,00000200,00000000,0001.14,0000.90,0000.72,0000.25,0000.34,0000.21,-000.12,0000.06,-000.24,18.6,24.9,05.9,04.0,0667.2,31.0
2021-08-08T01:43:00Z,00000200,00000000,0001.19,0001.41,0000.52,0000.70,-000.00,0000.28,0000.19,0000.14,0000.64,18.6,25.0,06.0,04.0,0667.2,31.0
2021-08-08T01:44:00Z,00000200,00000000,0000.71,0001.23,0000.47,0000.09,0000.14,-000.17,0000.05,0000.31,-000.02,18.6,24.9,05.9,04.0,0667.2,31.0
2021-08-08T01:45:00Z,00000200,00000000,0000.73,0001.01,0000.53,0000.32,0000.19,0000.26,0000.49,-000.04,0000.14,18.6,24.9,05.8,03.9,0667.2,31.0
2021-08-08T01:46:00Z,00000200,00000000,0001.48,0001.24,0000.38,0000.73,0000.18,0000.07,0000.01,0000.38,0000.18,18.6,24.9,05.8,03.9,0667.1,31.0
2021-08-08T01:47:00Z,00000200,00000000,0001.35,0000.95,0000.64,0000.68,0000.13,0000.00,-000.01,-000.36,-000.15,18.6,24.9,05.8,03.9,0667.1,31.0
2021-08-08T01:48:00Z,00000200,00000000,0001.76,0001.21,0000.17,0000.19,0000.09,-000.18,0000.30,0000.46,0000.58,18.6,24.9,05.9,04.0,0667.0,31.0
2021-08-08T01:49:00Z,00000200,00000000,0002.14,0001.06,0000.65,0000.30,0000.02,0000.22,0000.46,0000.11,0000.37,18.6,24.9,05.8,04.0,0667.1,31.0
2021-08-08T01:50:00Z,00000200,00000000,0001.25,0001.20,0000.43,0000.46,0000.04,0000.40,0000.39,0000.51,0000.06,18.6,24.9,05.9,04.0,0667.1,31.0
2021-08-08T01:51:00Z,00000200,00000000,0001.95,0001.06,0000.74,-000.06,0000.35,0000.17,-000.08,0000.23,0000.24,18.6,24.9,05.9,04.0,0667.1,31.0
2021-08-08T01:52:00Z,00000200,00000000,0001.90,0001.19,0000.95,0000.08,0000.24,0000.31,0000.38,0000.08,0000.29,18.6,24.9,05.9,04.0,0667.1,31.0
2021-08-08T01:53:00Z,00000200,00000000,0000.88,0001.14,0000.64,0000.54,-000.08,0000.10,0000.15,0000.24,0000.41,18.6,24.9,05.9,04.0,0667.0,31.0
2021-08-08T01:54:00Z,00000200,00000000,0001.10,0000.93,0000.68,0000.42,-000.39,0000.18,0000.72,0000.76,-000.10,18.7,25.0,05.8,04.0,0667.0,31.0
2021-08-08T01:55:00Z,00000200,00000000,0001.69,0001.20,0000.39,0000.51,0000.18,-000.07,-000.12,-000.09,0000.45,18.7,25.0,05.9,04.0,0667.1,31.1
2021-08-08T01:56:00Z,00000200,00000000,0001.78,0000.88,0000.64,0000.80,0000.14,0000.21,0000.25,0000.06,0000.10,18.8,25.1,05.9,04.0,0667.1,31.1
2021-08-08T01:57:00Z,00000200,40000000,,,,,,,0000.24,0000.21,0000.21,18.9,25.1,05.4,03.7,0667.0,31.1
2021-08-08T01:58:00Z,00000200,60000000,,,,,,,-000.22,0000.06,-000.30,18.6,25.3,06.0,04.0,0666.2,31.1
2021-08-08T01:59:00Z,00000200,20000000,,,,,,,0000.00,-000.17,0000.07,18.6,25.4,05.9,03.9,0666.2,31.1
